AUL101 ULAA-ULLI

Flight info

Callsign AUL101
Flight time 1h 9m
Altitude 36000
Route OBIR3K OBIRA M58 OSNAN DCT PRIBI DCT BEPOL BEPO1V
Aircraft A320/M-SDE3FGHIRWY/LB1

Departure

Time 2026-04-21 18:37
Airport Talagi Airport (ULAA)

Arrival

Time 2026-04-21 19:46
Airport Pulkovo Airport (ULLI)
Time Latitude Longitude Altitude Speed Heading
2026-04-21 18:18 64.59746 40.71732 71 ft 0 kts 186°
2026-04-21 18:29 64.59744 40.71731 70 ft 0 kts 186°
2026-04-21 18:29 64.59721 40.71715 70 ft 6 kts 216°
2026-04-21 18:29 64.59708 40.71614 70 ft 7 kts 272°
2026-04-21 18:30 64.59714 40.71489 70 ft 8 kts 276°
2026-04-21 18:30 64.59720 40.71347 70 ft 9 kts 276°
2026-04-21 18:30 64.59762 40.71263 70 ft 10 kts
2026-04-21 18:30 64.59825 40.71319 70 ft 10 kts 65°
2026-04-21 18:31 64.59822 40.71495 70 ft 11 kts 97°
2026-04-21 18:31 64.59812 40.71685 70 ft 12 kts 97°
2026-04-21 18:31 64.59803 40.71885 70 ft 12 kts 96°
2026-04-21 18:31 64.59797 40.72029 70 ft 13 kts 95°
2026-04-21 18:32 64.59786 40.72260 70 ft 15 kts 96°
2026-04-21 18:32 64.59773 40.72507 71 ft 15 kts 97°
2026-04-21 18:32 64.59762 40.72754 70 ft 15 kts 98°
2026-04-21 18:32 64.59749 40.73003 70 ft 15 kts 96°
2026-04-21 18:33 64.59737 40.73253 70 ft 15 kts 97°
2026-04-21 18:33 64.59724 40.73507 70 ft 15 kts 97°
2026-04-21 18:33 64.59704 40.73759 70 ft 15 kts 96°
2026-04-21 18:33 64.59692 40.74004 71 ft 12 kts 98°
2026-04-21 18:34 64.59690 40.74125 70 ft 6 kts 75°
2026-04-21 18:34 64.59730 40.74174 70 ft 7 kts
2026-04-21 18:34 64.59775 40.74186 70 ft 2 kts
2026-04-21 18:34 64.59776 40.74187 70 ft 0 kts
2026-04-21 18:35 64.59804 40.74194 70 ft 6 kts
2026-04-21 18:35 64.59860 40.74210 70 ft 9 kts
2026-04-21 18:35 64.59906 40.74121 70 ft 10 kts 283°
2026-04-21 18:36 64.59911 40.74021 71 ft 0 kts 277°
2026-04-21 18:36 64.59911 40.74019 70 ft 0 kts 276°
2026-04-21 18:36 64.59930 40.73616 71 ft 60 kts 277°
2026-04-21 18:36 64.60003 40.72107 71 ft 124 kts 275°
2026-04-21 18:37 64.60120 40.69664 119 ft 170 kts 275°
2026-04-21 18:37 64.60246 40.67014 844 ft 161 kts 275°
2026-04-21 18:37 64.60361 40.64534 1465 ft 157 kts 275°
2026-04-21 18:37 64.60477 40.61957 1971 ft 165 kts 275°
2026-04-21 18:38 64.60606 40.59188 2400 ft 181 kts 275°
2026-04-21 18:38 64.60753 40.56150 2836 ft 198 kts 276°
2026-04-21 18:38 64.60918 40.52810 3202 ft 220 kts 276°
2026-04-21 18:38 64.61105 40.49099 3621 ft 238 kts 276°
2026-04-21 18:39 64.61041 40.45159 4031 ft 254 kts 251°
2026-04-21 18:39 64.60070 40.41723 4702 ft 260 kts 220°
2026-04-21 18:39 64.58545 40.39584 5534 ft 261 kts 208°
2026-04-21 18:39 64.56929 40.37655 6302 ft 264 kts 208°
2026-04-21 18:40 64.55293 40.35703 7065 ft 268 kts 208°
2026-04-21 18:40 64.53642 40.33716 7834 ft 271 kts 208°
2026-04-21 18:40 64.52543 40.32381 8336 ft 273 kts 208°
2026-04-21 18:40 64.50279 40.29623 9346 ft 278 kts 208°
2026-04-21 18:41 64.48583 40.27558 10080 ft 282 kts 208°
2026-04-21 18:41 64.46809 40.25400 10593 ft 294 kts 208°
2026-04-21 18:41 64.44967 40.23161 10930 ft 312 kts 208°
2026-04-21 18:41 64.42969 40.20737 11255 ft 330 kts 208°
2026-04-21 18:42 64.40898 40.18232 11578 ft 347 kts 208°
2026-04-21 18:42 64.38757 40.15649 12137 ft 354 kts 208°
2026-04-21 18:42 64.36558 40.13005 12846 ft 357 kts 208°
2026-04-21 18:42 64.34359 40.10363 13518 ft 361 kts 208°
2026-04-21 18:43 64.32137 40.07697 14163 ft 364 kts 209°
2026-04-21 18:43 64.29896 40.05011 14798 ft 368 kts 209°
2026-04-21 18:43 64.27623 40.02291 15420 ft 371 kts 209°
2026-04-21 18:43 64.25308 39.99527 16031 ft 375 kts 209°
2026-04-21 18:44 64.22988 39.96761 16625 ft 379 kts 209°
2026-04-21 18:44 64.20653 39.93982 17205 ft 382 kts 209°
2026-04-21 18:44 64.18301 39.91189 17765 ft 386 kts 209°
2026-04-21 18:44 64.15912 39.88358 18317 ft 389 kts 209°
2026-04-21 18:45 64.13521 39.85529 18854 ft 392 kts 209°
2026-04-21 18:45 64.11077 39.82644 19384 ft 396 kts 209°
2026-04-21 18:45 64.08632 39.79764 19897 ft 399 kts 209°
2026-04-21 18:45 64.06119 39.76808 20407 ft 403 kts 209°
2026-04-21 18:46 64.03612 39.73867 20901 ft 406 kts 210°
2026-04-21 18:46 64.01115 39.70943 21382 ft 409 kts 210°
2026-04-21 18:46 63.98579 39.67977 21847 ft 413 kts 210°
2026-04-21 18:46 63.96010 39.64977 22310 ft 416 kts 210°
2026-04-21 18:47 63.93470 39.62017 22752 ft 419 kts 210°
2026-04-21 18:47 63.90873 39.58998 23184 ft 422 kts 210°
2026-04-21 18:47 63.88250 39.55928 23606 ft 424 kts 211°
2026-04-21 18:47 63.85711 39.52642 24017 ft 426 kts 214°
2026-04-21 18:48 63.83203 39.48947 24415 ft 428 kts 217°
2026-04-21 18:48 63.80768 39.45163 24792 ft 431 kts 217°
2026-04-21 18:48 63.78267 39.41303 25158 ft 434 kts 217°
2026-04-21 18:48 63.75785 39.37487 25509 ft 437 kts 217°
2026-04-21 18:49 63.73262 39.33611 25866 ft 439 kts 216°
2026-04-21 18:49 63.70761 39.29764 26204 ft 442 kts 217°
2026-04-21 18:49 63.69064 39.27158 26422 ft 443 kts 216°
2026-04-21 18:49 63.65648 39.21928 26858 ft 446 kts 217°
2026-04-21 18:50 63.63089 39.18024 27281 ft 446 kts 217°
2026-04-21 18:50 63.60560 39.14177 27739 ft 444 kts 217°
2026-04-21 18:50 63.58007 39.10304 28171 ft 444 kts 217°
2026-04-21 18:50 63.55444 39.06423 28585 ft 443 kts 217°
2026-04-21 18:51 63.52908 39.02591 29024 ft 442 kts 217°
2026-04-21 18:51 63.50376 38.98774 29499 ft 439 kts 217°
2026-04-21 18:51 63.47835 38.94953 29951 ft 437 kts 217°
2026-04-21 18:51 63.45350 38.91225 30333 ft 437 kts 217°
2026-04-21 18:52 63.42833 38.87459 30695 ft 436 kts 217°
2026-04-21 18:52 63.40321 38.83712 31047 ft 436 kts 217°
2026-04-21 18:52 63.37815 38.79975 31393 ft 435 kts 217°
2026-04-21 18:52 63.35314 38.76253 31726 ft 435 kts 217°
2026-04-21 18:53 63.32791 38.72495 32059 ft 434 kts 217°
2026-04-21 18:53 63.30306 38.68718 32382 ft 432 kts 220°
2026-04-21 18:53 63.28009 38.64387 32650 ft 431 kts 225°
2026-04-21 18:53 63.25835 38.59956 32862 ft 432 kts 226°
2026-04-21 18:54 63.23630 38.55419 33122 ft 432 kts 226°
2026-04-21 18:54 63.21424 38.50904 33382 ft 432 kts 226°
2026-04-21 18:54 63.19193 38.46365 33653 ft 432 kts 226°
2026-04-21 18:54 63.16993 38.41914 33906 ft 431 kts 226°
2026-04-21 18:55 63.15522 38.38944 34063 ft 432 kts 226°
2026-04-21 18:55 63.12580 38.33026 34346 ft 432 kts 225°
2026-04-21 18:55 63.10354 38.28551 34531 ft 433 kts 225°
2026-04-21 18:55 63.08149 38.24133 34700 ft 434 kts 225°
2026-04-21 18:56 63.05912 38.19667 34871 ft 435 kts 225°
2026-04-21 18:56 63.03669 38.15199 35027 ft 435 kts 225°
2026-04-21 18:56 63.01434 38.10762 35198 ft 436 kts 225°
2026-04-21 18:56 62.99172 38.06283 35344 ft 437 kts 225°
2026-04-21 18:57 62.96930 38.01852 35489 ft 437 kts 225°
2026-04-21 18:57 62.94659 37.97377 35628 ft 438 kts 225°
2026-04-21 18:57 62.92394 37.92921 35735 ft 439 kts 225°
2026-04-21 18:58 62.87835 37.84000 35822 ft 444 kts 224°
2026-04-21 18:58 62.83200 37.75008 35857 ft 449 kts 224°
2026-04-21 18:59 62.78509 37.65927 35869 ft 454 kts 224°
2026-04-21 18:59 62.73785 37.56803 35895 ft 456 kts 224°
2026-04-21 19:00 62.69054 37.47710 35926 ft 456 kts 225°
2026-04-21 19:00 62.64300 37.38605 35943 ft 455 kts 225°
2026-04-21 19:01 62.59567 37.29567 35950 ft 455 kts 224°
2026-04-21 19:01 62.54829 37.20535 35958 ft 456 kts 223°
2026-04-21 19:02 62.50071 37.11529 35964 ft 453 kts 224°
2026-04-21 19:02 62.45352 37.02637 35966 ft 450 kts 224°
2026-04-21 19:03 62.40676 36.93869 35966 ft 445 kts 224°
2026-04-21 19:03 62.36008 36.85148 35966 ft 445 kts 224°
2026-04-21 19:04 62.31348 36.76483 35966 ft 445 kts 224°
2026-04-21 19:04 62.26680 36.67842 35966 ft 445 kts 224°
2026-04-21 19:05 62.22006 36.59226 35967 ft 445 kts 224°
2026-04-21 19:05 62.17304 36.50592 35967 ft 445 kts 224°
2026-04-21 19:06 62.12630 36.42050 35965 ft 445 kts 224°
2026-04-21 19:06 62.07939 36.33512 35967 ft 444 kts 223°
2026-04-21 19:07 62.03236 36.24959 35967 ft 445 kts 223°
2026-04-21 19:07 61.98546 36.16476 35965 ft 445 kts 223°
2026-04-21 19:08 61.93859 36.08047 35966 ft 445 kts 223°
2026-04-21 19:08 61.89113 35.99551 35966 ft 445 kts 223°
2026-04-21 19:09 61.84404 35.91213 35966 ft 445 kts 223°
2026-04-21 19:09 61.79656 35.82819 35966 ft 445 kts 223°
2026-04-21 19:10 61.74925 35.74467 35966 ft 445 kts 223°
2026-04-21 19:10 61.70170 35.66103 35966 ft 445 kts 223°
2026-04-21 19:11 61.65437 35.57806 35965 ft 445 kts 223°
2026-04-21 19:11 61.60684 35.49511 35967 ft 445 kts 223°
2026-04-21 19:12 61.56749 35.42667 35967 ft 445 kts 223°
2026-04-21 19:12 61.51196 35.33046 35966 ft 445 kts 222°
2026-04-21 19:13 61.46446 35.24825 35966 ft 445 kts 222°
2026-04-21 19:13 61.41656 35.16583 35965 ft 446 kts 222°
2026-04-21 19:14 61.36878 35.08397 35965 ft 446 kts 222°
2026-04-21 19:14 61.32090 35.00234 35966 ft 446 kts 222°
2026-04-21 19:15 61.27290 34.92087 35966 ft 446 kts 222°
2026-04-21 19:15 61.22492 34.83978 35966 ft 446 kts 222°
2026-04-21 19:16 61.17715 34.75941 35967 ft 445 kts 222°
2026-04-21 19:16 61.12907 34.67884 35967 ft 445 kts 222°
2026-04-21 19:17 61.05694 34.55856 35966 ft 445 kts 221°
2026-04-21 19:17 61.00887 34.47881 35967 ft 445 kts 222°
2026-04-21 19:18 60.96065 34.39913 35967 ft 445 kts 222°
2026-04-21 19:18 60.91261 34.32000 35967 ft 445 kts 221°
2026-04-21 19:19 60.86425 34.24075 35967 ft 446 kts 221°
2026-04-21 19:19 60.81584 34.16203 35967 ft 445 kts 221°
2026-04-21 19:20 60.76759 34.08370 35966 ft 445 kts 221°
2026-04-21 19:20 60.71889 34.00489 35967 ft 446 kts 221°
2026-04-21 19:21 60.67057 33.92653 35954 ft 445 kts 223°
2026-04-21 19:21 60.64888 33.88206 35699 ft 442 kts 232°
2026-04-21 19:21 60.63098 33.83165 35450 ft 440 kts 240°
2026-04-21 19:22 60.61644 33.77768 35196 ft 440 kts 244°
2026-04-21 19:22 60.60242 33.72192 34744 ft 441 kts 245°
2026-04-21 19:22 60.58867 33.66681 34079 ft 442 kts 244°
2026-04-21 19:22 60.57470 33.61108 33315 ft 443 kts 244°
2026-04-21 19:23 60.56079 33.55588 32520 ft 444 kts 244°
2026-04-21 19:23 60.54670 33.50028 31678 ft 446 kts 244°
2026-04-21 19:23 60.53246 33.44428 30780 ft 448 kts 244°
2026-04-21 19:23 60.51816 33.38828 29869 ft 450 kts 244°
2026-04-21 19:24 60.50377 33.33210 29292 ft 448 kts 243°
2026-04-21 19:24 60.48957 33.27674 28718 ft 447 kts 243°
2026-04-21 19:24 60.47536 33.22147 28166 ft 442 kts 243°
2026-04-21 19:24 60.46122 33.16661 27608 ft 438 kts 243°
2026-04-21 19:25 60.44711 33.11209 27066 ft 433 kts 243°
2026-04-21 19:25 60.43319 33.05846 26508 ft 429 kts 243°
2026-04-21 19:25 60.41942 33.00563 25967 ft 425 kts 243°
2026-04-21 19:25 60.40568 32.95301 25422 ft 421 kts 244°
2026-04-21 19:26 60.39215 32.90132 24889 ft 416 kts 244°
2026-04-21 19:26 60.37870 32.85003 24361 ft 412 kts 244°
2026-04-21 19:26 60.36547 32.79965 23852 ft 408 kts 244°
2026-04-21 19:26 60.35211 32.74886 23338 ft 405 kts 244°
2026-04-21 19:27 60.33900 32.69915 22837 ft 401 kts 244°
2026-04-21 19:27 60.32601 32.65003 22340 ft 397 kts 244°
2026-04-21 19:27 60.31308 32.60123 21844 ft 394 kts 244°
2026-04-21 19:27 60.30039 32.55345 21359 ft 390 kts 244°
2026-04-21 19:28 60.28763 32.50551 20874 ft 387 kts 244°
2026-04-21 19:28 60.27487 32.45768 20390 ft 383 kts 244°
2026-04-21 19:28 60.26232 32.41074 19911 ft 380 kts 244°
2026-04-21 19:28 60.24995 32.36457 19442 ft 376 kts 244°
2026-04-21 19:29 60.23758 32.31846 18961 ft 373 kts 243°
2026-04-21 19:29 60.22530 32.27270 18479 ft 370 kts 243°
2026-04-21 19:29 60.21318 32.22762 18000 ft 367 kts 243°
2026-04-21 19:29 60.20105 32.18264 17520 ft 364 kts 243°
2026-04-21 19:30 60.18919 32.13876 17048 ft 361 kts 243°
2026-04-21 19:30 60.17714 32.09430 16567 ft 358 kts 243°
2026-04-21 19:30 60.16541 32.05110 16096 ft 355 kts 243°
2026-04-21 19:30 60.15374 32.00821 15625 ft 352 kts 243°
2026-04-21 19:31 60.14202 31.96522 15153 ft 349 kts 243°
2026-04-21 19:31 60.13048 31.92298 14688 ft 346 kts 243°
2026-04-21 19:31 60.12271 31.89461 14374 ft 344 kts 243°
2026-04-21 19:31 60.10757 31.83936 13760 ft 340 kts 243°
2026-04-21 19:32 60.09621 31.79803 13299 ft 337 kts 243°
2026-04-21 19:32 60.08492 31.75699 12839 ft 334 kts 243°
2026-04-21 19:32 60.07379 31.71661 12385 ft 332 kts 243°
2026-04-21 19:32 60.06276 31.67668 11931 ft 329 kts 243°
2026-04-21 19:33 60.05534 31.64983 11622 ft 328 kts 243°
2026-04-21 19:33 60.04070 31.59699 10994 ft 325 kts 243°
2026-04-21 19:33 60.02980 31.55770 10530 ft 323 kts 243°
2026-04-21 19:33 60.01911 31.51929 10382 ft 309 kts 243°
2026-04-21 19:34 60.00885 31.48249 10280 ft 295 kts 243°
2026-04-21 19:34 59.99904 31.44740 10190 ft 282 kts 243°
2026-04-21 19:34 59.99279 31.42505 10139 ft 273 kts 243°
2026-04-21 19:34 59.98087 31.38247 9948 ft 260 kts 243°
2026-04-21 19:35 59.97200 31.35079 9598 ft 259 kts 243°
2026-04-21 19:35 59.95468 31.28883 8951 ft 256 kts 242°
2026-04-21 19:35 59.94599 31.25784 8634 ft 254 kts 242°
2026-04-21 19:36 59.93746 31.22748 8325 ft 252 kts 242°
2026-04-21 19:36 59.92893 31.19723 8019 ft 250 kts 242°
2026-04-21 19:36 59.92040 31.16699 7716 ft 249 kts 242°
2026-04-21 19:36 59.91195 31.13706 7417 ft 247 kts 242°
2026-04-21 19:37 59.90355 31.10740 7121 ft 245 kts 242°
2026-04-21 19:37 59.89522 31.07814 6829 ft 243 kts 241°
2026-04-21 19:37 59.88679 31.04890 6536 ft 242 kts 241°
2026-04-21 19:37 59.87843 31.01992 6245 ft 241 kts 241°
2026-04-21 19:38 59.87017 30.99116 5957 ft 239 kts 241°
2026-04-21 19:38 59.86204 30.96279 5674 ft 238 kts 241°
2026-04-21 19:38 59.85652 30.94353 5482 ft 237 kts 241°
2026-04-21 19:38 59.84572 30.90586 5107 ft 236 kts 241°
2026-04-21 19:39 59.83761 30.87754 4826 ft 235 kts 241°
2026-04-21 19:39 59.82956 30.84950 4550 ft 234 kts 241°
2026-04-21 19:39 59.82154 30.82152 4274 ft 233 kts 241°
2026-04-21 19:39 59.81351 30.79356 4000 ft 232 kts 241°
2026-04-21 19:40 59.80550 30.76572 3729 ft 232 kts 241°
2026-04-21 19:40 59.79749 30.73789 3456 ft 231 kts 241°
2026-04-21 19:40 59.78953 30.71027 3187 ft 230 kts 241°
2026-04-21 19:40 59.78152 30.68255 2919 ft 230 kts 241°
2026-04-21 19:41 59.77364 30.65531 2656 ft 229 kts 241°
2026-04-21 19:41 59.76572 30.62792 2503 ft 221 kts 241°
2026-04-21 19:41 59.75838 30.60262 2490 ft 207 kts 241°
2026-04-21 19:41 59.75159 30.57853 2505 ft 191 kts 247°
2026-04-21 19:42 59.74962 30.55426 2526 ft 172 kts 277°
2026-04-21 19:42 59.75245 30.53296 2481 ft 149 kts 288°
2026-04-21 19:42 59.75583 30.51419 2428 ft 139 kts 288°
2026-04-21 19:42 59.75887 30.49635 2292 ft 137 kts 287°
2026-04-21 19:43 59.76080 30.48431 2157 ft 136 kts 286°
2026-04-21 19:43 59.76441 30.46041 1907 ft 136 kts 285°
2026-04-21 19:43 59.76706 30.44229 1718 ft 136 kts 285°
2026-04-21 19:43 59.76967 30.42429 1534 ft 135 kts 285°
2026-04-21 19:44 59.77224 30.40649 1356 ft 135 kts 285°
2026-04-21 19:44 59.77486 30.38850 1178 ft 134 kts 285°
2026-04-21 19:44 59.77744 30.37080 1003 ft 134 kts 285°
2026-04-21 19:44 59.78004 30.35306 828 ft 134 kts 286°
2026-04-21 19:45 59.78179 30.34115 709 ft 134 kts 285°
2026-04-21 19:45 59.78527 30.31741 470 ft 133 kts 285°
2026-04-21 19:45 59.78783 30.30003 295 ft 133 kts 285°
2026-04-21 19:45 59.79046 30.28232 119 ft 132 kts 285°
2026-04-21 19:46 59.79272 30.26683 87 ft 94 kts 286°
2026-04-21 19:46 59.79409 30.25756 87 ft 44 kts 288°
2026-04-21 19:46 59.79464 30.25502 87 ft 3 kts 346°
2026-04-21 19:46 59.79490 30.25521 87 ft 3 kts 48°
2026-04-21 19:47 59.79502 30.25586 87 ft 5 kts 75°
2026-04-21 19:47 59.79513 30.25669 87 ft 6 kts 76°
2026-04-21 19:47 59.79523 30.25768 87 ft 7 kts 79°
2026-04-21 19:47 59.79534 30.25883 87 ft 8 kts 77°
2026-04-21 19:48 59.79543 30.26011 87 ft 9 kts 90°
2026-04-21 19:48 59.79530 30.26152 87 ft 10 kts 105°
2026-04-21 19:48 59.79524 30.26297 87 ft 11 kts 47°
2026-04-21 19:48 59.79575 30.26332 87 ft 11 kts 18°
2026-04-21 19:49 59.79662 30.26441 87 ft 12 kts 90°
2026-04-21 19:49 59.79651 30.26574 87 ft 5 kts 105°
2026-04-21 19:49 59.79647 30.26598 87 ft 0 kts 107°